Location: Auckland
(36.8500°S, 174.7800°E)
Time: 17:26:40
(UTC+12:00)

ISS - Visible Passes

Search period start: 13 April 2024 00:00
Search period end: 23 April 2024 00:00
Orbit: 413 x 419 km, 51.6° (Epoch: 12 April)

Date Brightness Start Highest point End Pass type
(mag) Time Alt. Az. Time Alt. Az. Time Alt. Az.
13 Apr -2.2 18:44:36 10° N 18:47:11 20° NE 18:48:32 16° E visible
13 Apr -0.8 20:20:33 10° WNW 20:21:28 16° W 20:21:28 16° W visible
14 Apr -3.5 19:31:47 10° WNW 19:35:10 66° SW 19:35:28 61° S visible
15 Apr -3.7 18:43:15 10° NW 18:46:37 66° NE 18:49:19 15° ESE visible
15 Apr -0.6 20:21:16 10° WSW 20:22:14 14° WSW 20:22:14 14° WSW visible
16 Apr -1.8 19:32:00 10° W 19:34:54 25° SSW 19:35:55 22° S visible
17 Apr -2.6 18:42:57 10° WNW 18:46:11 40° SW 18:49:28 10° SE visible
18 Apr -1.1 19:32:57 10° SW 19:34:45 14° SSW 19:35:49 12° S visible
19 Apr -1.4 18:43:23 10° WSW 18:45:52 19° SSW 18:48:23 10° SSE visible
21 Apr -0.9 18:44:44 10° SSW 18:45:39 11° SSW 18:46:33 10° S visible
